Regional Weather Roundup
Issued by NWS

Home | Current Version | Previous Version | Graphics & Text | Print | Product List | Glossary Off
Versions: 1 2 3 4 5 6 7 8 9 10 11 12 13 14 15 16 17 18 19 20 21 22 23 24 25 26 27 28 29 30 31 32 33 34 35 36 37 38 39 40 41 42 43 44 45 46 47 48 49 50

000
ASUS44 KFWD 201615
RWRTX
NORTH TEXAS HOURLY WEATHER ROUNDUP
NATIONAL WEATHER SERVICE FORT WORTH TX
1000 AM CST MON NOV 20 2017

NOTE: "FAIR" INDICATES FEW OR NO CLOUDS BELOW 12,000 FEET WITH NO
SIGNIFICANT WEATHER AND/OR OBSTRUCTIONS TO VISIBILITY.

TXZ118-119-201700-
DALLAS/FORT WORTH METROPLEX

CITY           SKY/WX    TMP DP  RH WIND       PRES   REMARKS
DFW AIRPORT    MOSUNNY   56  31  38 S16       30.17F
DALLAS LOVE    MOSUNNY   57  31  37 S10       30.19F
FTW MEACHAM    SUNNY     57  33  40 S14G22    30.17F
DAL-EXECUTIVE  MOSUNNY   56  31  38 S13G20    30.19F
FTW-ALLIANCE   PTSUNNY   54  34  46 S9        30.17F
FTW-NAS-JRB    MOSUNNY   57  33  40 S13       30.18F
FTW-SPINKS     SUNNY     55  32  41 S13       30.21S
ARLINGTON      SUNNY     54  32  43 S13       30.19F
GRAND PRAIRIE  SUNNY     54  32  43 S7G18     30.21F
ADDISON        SUNNY     54  30  40 S9        30.19F
MESQUITE       SUNNY     52  36  54 SE8       30.21F
LANCASTER      SUNNY     53  32  44 S8        30.22F
$$

TXZ091>094-102>105-117-120-121-131>134-201700-
NORTH CENTRAL TEXAS

CITY           SKY/WX    TMP DP  RH WIND       PRES   REMARKS
SHRMAN/DENISON SUNNY     57  31  38 S15       30.18F
GAINESVILLE    SUNNY     53  31  43 S16G22    30.18F
BOWIE          SUNNY     53  32  45 S14       30.15F
DENTON         SUNNY     54  34  46 S14       30.18F
MCKINNEY       SUNNY     54  33  45 S13       30.19F
BONHAM         SUNNY    N/A N/A N/A S15       30.19F
GREENVILLE     SUNNY     57  32  38 S13       30.22S
ROCKWALL       CLOUDY    53  33  47 S15       30.20F
TERRELL        SUNNY     55  35  47 S12       30.22F
WAXAHACHIE     CLOUDY    53  36  52 S6        30.22S
CLEBURNE       SUNNY     52  34  50 S13       30.20F
GRANBURY       SUNNY     56  34  43 S9        30.20F
$$

TXZ083>090-098>101-113>116-127>130-139>142-154-155-201700-
WESTERN NORTH TEXAS

CITY           SKY/WX    TMP DP  RH WIND       PRES   REMARKS
WICHITA FALLS  MOSUNNY   54  30  40 S20       30.11F
WF-KICKAPOO    SUNNY     53  31  41 S17G25    30.14F
VERNON         SUNNY     51  25  35 S13       30.09F
ABILENE        SUNNY     53  30  41 S18G24    30.12F
ABILENE-DYESS  SUNNY     54  31  41 S14G23    30.15F
GRAHAM           N/A     56  31  39 S12G18    30.13F
BRECKENRIDGE   SUNNY     56  29  36 S16G22    30.14F HAZE
CISCO          SUNNY     54  30  40 S14G20    30.16R
EASTLAND       SUNNY     54  32  43 S15       30.15F
RANGER         SUNNY     52  32  46 S15       30.16S
MINERAL WELLS  SUNNY     51  33  50 S10       30.16F
STEPHENVILLE   SUNNY     53  35  49 S9        30.20S
COMANCHE       SUNNY     57  32  38 S13G18    30.17S
COLEMAN        SUNNY     51  32  48 S10G16    30.17R
$$

TXZ143>147-156>162-174-175-201700-
CENTRAL TEXAS

CITY           SKY/WX    TMP DP  RH WIND       PRES   REMARKS
WACO           SUNNY     55  39  54 S7        30.22S
WACO-TSTC      SUNNY     52  37  58 S8        30.23S
WACO-MCGREGOR  SUNNY     55  37  50 S5        30.21F
HILLSBORO      SUNNY     54  35  49 S10       30.21S
CORSICANA      SUNNY     56  35  45 S10       30.23F
MEXIA          SUNNY     53  36  52 S10G18    30.22S
HEARNE         SUNNY     54  38  55 SE7       30.25S
CAMERON        SUNNY     54  40  59 S3        30.23F
TEMPLE         MOSUNNY   55  34  45 S12       30.22F
KILLEEN        SUNNY     56  33  41 S10       30.19F
KILLEEN-SKYLRK SUNNY     54  37  52 SE9       30.21F
GATESVILLE     SUNNY     55  36  47 S8        30.21F
HAMILTON       SUNNY     55  35  45 S12       30.19S
LAMPASAS       SUNNY     56  35  46 S10       30.18S
$$

TXZ095>097-106>112-122>126-135>138-148>153-164>167-201700-
EAST TEXAS

CITY           SKY/WX    TMP DP  RH WIND       PRES   REMARKS
PARIS          SUNNY     53  36  52 S10       30.21F
SULPHUR SPRNGS SUNNY     55  35  47 S9        30.23F
MOUNT PLEASANT SUNNY     51  37  57 S7        30.25F
GILMER         CLOUDY    51  36  56 SE3       30.24F
MINEOLA        SUNNY     55  34  44 S6        30.23F
TYLER          SUNNY     54  34  46 S12       30.23F
LONGVIEW       SUNNY     52  43  71 SE7       30.24S
MARSHALL       CLOUDY    50  37  60 S7        30.27F
ATHENS         SUNNY     52  32  46 S10       30.22F
PALESTINE      SUNNY     55  35  46 S8        30.25F
JACKSONVILLE   SUNNY     52  36  54 S6        30.26S
HENDERSON      MOSUNNY   52  36  54 SE7       30.26S
CENTER         CLOUDY    47  38  73 E7        30.26S
NACOGDOCHES    CLOUDY    49  37  63 S5        30.26S
LUFKIN         MOSUNNY   52  35  52 SE9       30.26R
$$

SUPPLEMENTAL OBSERVATIONS (NWS FORT WORTH AREA)

CITY           SKY/WX    TMP DP  RH WIND       PRES   REMARKS
DENISON DAM      N/A     55  28  35 SW9         N/A
PAT MAYSE LAKE   N/A     54  36  50 SE13        N/A
GREENVILLE       N/A     55  34  44 S10         N/A
CEDAR HILL       N/A     57  30  35 S7G15       N/A
POSSUM KINGDOM   N/A     55  32  41 S13         N/A
GRANBURY         N/A     55  32  41 S12         N/A
MCGREGOR         N/A     54  34  47 S10         N/A
TEMPLE           N/A     54  34  47 S7          N/A
ATHENS           N/A     57  32  38 S9          N/A
$$

SUPPLEMENTAL OBSERVATIONS (NWS NORMAN AREA)

CITY           SKY/WX    TMP DP  RH WIND       PRES   REMARKS
GOODLETT         N/A     53  24  32 S18G24    30.03F
ODELL            N/A     52  29  40 S15       30.07F
CROWELL          N/A     53  27  37 S16       30.08F
KNOX CITY        N/A     54  26  33 S16       30.10F
SEYMOUR          N/A     56  27  32 S15G23    30.11F
MILLERS CREEK    N/A     55  34  44 S17G23      N/A
$$

SUPPLEMENTAL OBSERVATIONS (NWS SAN ANGELO AREA)

CITY           SKY/WX    TMP DP  RH WIND       PRES   REMARKS
WEINERT          N/A     54  29  38 S12       30.11F
HASKELL          N/A     53  26  35 S13G18    30.11F
THROCKMORTON     N/A     55  31  41 S10       30.13F
STAMFORD         N/A     54  29  39 S18       30.12F
CLYDE            N/A     55  29  36 S20       30.13F
HAMBY            N/A     55  32  41 S21         N/A
IVIE RESERVOIR   N/A     57  32  38 S15         N/A
COLORADO BEND    N/A     57  32  38 S9G17       N/A
$$

SUPPLEMENTAL OBSERVATIONS (NWS SHREVEPORT AREA)

CITY           SKY/WX    TMP DP  RH WIND       PRES   REMARKS
CLARKSVILLE      N/A     54  34  47 S12         N/A
TEXARKANA        N/A     54  34  47 S5          N/A
LINDEN           N/A     55  32  41 S5          N/A
CADDO LAKE       N/A     55  36  47 S3          N/A
GILMER           N/A     54  36  50 S6          N/A
HENDERSON        N/A     55  36  47 S7          N/A
LUFKIN           N/A     55  34  44 MISG        N/A
S SABINE NF      N/A     57  32  38 E2          N/A
$$

SUPPLEMENTAL OBSERVATIONS ARE A COLLECTION OF AUTOMATED INSTRUMENTS
THAT ARE MAINTAINED BY A VARIETY OF FEDERAL AND STATE AGENCIES.
CERTAIN ELEMENTS...SUCH AS HUMIDITY VALUES AND SUSTAINED WIND
SPEEDS...MAY BE APPROXIMATED.




USA.gov is the U.S. government's official web portal to all federal, state and local government web resources and services.